Weather History for Mandan, ND

Change the Weather History Date:

Saturday, February 2, 2013

  Actual Average (KBIS) Record (KBIS)
Temperature  
Mean Temperature 20 °F 14 °F  
Max Temperature 35 °F 25 °F 58 °F (1931)
Min Temperature 5 °F 4 °F -39 °F (1917)
Degree Days  
Heating Degree Days 45 50  
Month to date heating degree days 101  
Since 1 July heating degree days 5219  
Cooling Degree Days 0 0  
Month to date cooling degree days 0  
Year to date cooling degree days 0  
Moisture  
Dew Point 14 °F    
Average Humidity 90    
Maximum Humidity 100    
Minimum Humidity 79    
Precipitation  
Precipitation 0.09 in 0.02 in 0.27 in (1938)
Month to date precipitation 0.03  
Year to date precipitation 0.46  
Snow  
Snow 0.00 in 0.20 in 3.60 in (1938)
Month to date snowfall 0.5  
Since 1 July snowfall 29.9  
Snow Depth -    
Sea Level Pressure  
Sea Level Pressure 30.04 in    
Wind  
Wind Speed 12 mph (NW)    
Max Wind Speed 37 mph    
Max Gust Speed 45 mph    
Visibility 8 miles    
Events Rain , Snow    
T = Trace of Precipitation, MM = Missing Value Source: NWS Daily Summary

Daily Weather History Graph

Daily Weather History Graph

Search for Another Location

Airport:

Trip Planner

Search our weather history database for the weather conditions in past years. The results will help you decide how hot, cold, wet, or windy it might be!

Date:

Astronomy

Feb. 02, 2013 Rise Set
Actual Time 8:06 AM CST 5:49 PM CST
Civil Twilight 7:33 AM CST 6:21 PM CST
Nautical Twilight 6:57 AM CST 6:57 PM CST
Astronomical Twilight 6:22 AM CST 7:33 PM CST
Moon 12:24 AM CST (2/2) 10:49 AM CST (2/2)
Length of Visible Light 10h 47m
Length of Day
9h 42m
Waning Gibbous, 59% of the Moon is Illuminated
Feb 2
Waning Gibbous
Feb 3
Last Quarter
Feb 10
New
Feb 17
First Quarter
Feb 25
Full

Hourly Weather History & Observations

Time (CST) Temp. Windchill Dew Point Humidity Pressure Visibility Wind Dir Wind Speed Gust Speed Precip Events Conditions
12:15 AM 14.0 °F -0.2 °F 12.2 °F 93% 30.06 in 10.0 mi NNW 12.7 mph - N/A   Overcast
12:35 AM 14.0 °F -0.2 °F 12.2 °F 93% 30.07 in 10.0 mi NNW 12.7 mph - N/A   Overcast
12:55 AM 12.2 °F -0.2 °F 10.4 °F 92% 30.07 in 10.0 mi North 9.2 mph - N/A   Overcast
1:15 AM 10.4 °F -1.5 °F 8.6 °F 92% 30.08 in 10.0 mi North 8.1 mph - N/A   Overcast
1:35 AM 10.4 °F -1.5 °F 8.6 °F 92% 30.07 in 10.0 mi North 8.1 mph - N/A Snow Light Snow
1:55 AM 8.6 °F -4.7 °F 6.8 °F 92% 30.08 in 10.0 mi North 9.2 mph - N/A   Overcast
2:15 AM 8.6 °F -4.7 °F 6.8 °F 92% 30.08 in 5.0 mi North 9.2 mph - N/A Snow Light Snow
2:35 AM 8.6 °F -3.7 °F 6.8 °F 92% 30.08 in 4.0 mi North 8.1 mph - 0.01 in Snow Light Snow
2:55 AM 6.8 °F -2.0 °F 5.0 °F 92% 30.08 in 4.0 mi North 4.6 mph - 0.02 in Snow Light Snow
3:15 AM 6.8 °F -2.0 °F 5.0 °F 92% 30.08 in 5.0 mi ENE 4.6 mph - N/A Snow Light Snow
3:35 AM 5.0 °F -5.6 °F 3.2 °F 92% 30.08 in 10.0 mi NNE 5.8 mph - N/A   Mostly Cloudy
3:55 AM 5.0 °F - 3.2 °F 92% 30.08 in 10.0 mi Calm Calm - N/A   Overcast
4:15 AM 5.0 °F -2.1 °F 3.2 °F 92% 30.07 in 8.0 mi East 3.5 mph - N/A Snow Light Snow
4:35 AM 5.0 °F -2.1 °F 3.2 °F 92% 30.07 in 10.0 mi NE 3.5 mph - N/A Snow Light Snow
4:55 AM 6.8 °F - 3.2 °F 85% 30.06 in 10.0 mi Calm Calm - N/A   Overcast
5:15 AM 6.8 °F - 5.0 °F 92% 30.06 in 10.0 mi Calm Calm - N/A   Overcast
5:35 AM 6.8 °F -0.1 °F 5.0 °F 92% 30.06 in 10.0 mi SSE 3.5 mph - N/A   Overcast
5:55 AM 6.8 °F -0.1 °F 5.0 °F 92% 30.05 in 10.0 mi SE 3.5 mph - N/A Snow Light Snow
6:15 AM 6.8 °F - 5.0 °F 92% 30.05 in 8.0 mi Calm Calm - N/A Snow Light Snow
6:35 AM 6.8 °F -0.1 °F 5.0 °F 92% 30.04 in 9.0 mi SE 3.5 mph - N/A   Overcast
6:55 AM 6.8 °F -3.5 °F 5.0 °F 92% 30.02 in 10.0 mi South 5.8 mph - N/A   Overcast
7:15 AM 6.8 °F -3.5 °F 5.0 °F 92% 30.01 in 10.0 mi SSW 5.8 mph - N/A   Mostly Cloudy
7:35 AM 8.6 °F 2.0 °F 6.8 °F 92% 30.02 in 10.0 mi SSW 3.5 mph - N/A   Mostly Cloudy
7:55 AM 8.6 °F -1.3 °F 6.8 °F 92% 30.01 in 10.0 mi South 5.8 mph - N/A   Overcast
8:15 AM 8.6 °F 0.1 °F 6.8 °F 92% 30.00 in 10.0 mi SSE 4.6 mph - N/A   Overcast
8:35 AM 8.6 °F 0.1 °F 6.8 °F 92% 29.99 in 9.0 mi SE 4.6 mph - N/A   Overcast
8:55 AM 8.6 °F 0.1 °F 6.8 °F 92% 30.00 in 8.0 mi SSE 4.6 mph - N/A   Overcast
9:15 AM 10.4 °F 2.2 °F 8.6 °F 92% 29.99 in 1.2 mi SE 4.6 mph - 0.01 in Snow Light Snow
9:35 AM 10.4 °F -1.5 °F 8.6 °F 92% 29.97 in 1.0 mi SSE 8.1 mph - 0.05 in Snow Light Snow
9:55 AM 10.4 °F -2.4 °F 10.4 °F 100% 29.95 in 6.0 mi South 9.2 mph - 0.05 in Snow Light Snow
10:15 AM 14.0 °F 0.5 °F 12.2 °F 93% 29.94 in 1.2 mi SSW 11.5 mph - N/A Snow Light Snow
10:35 AM 15.8 °F 2.1 °F 15.8 °F 100% 29.93 in - SW 12.7 mph - 0.02 in Snow Heavy Snow
10:55 AM 19.4 °F 6.6 °F 19.4 °F 100% 29.92 in - SW 12.7 mph - 0.02 in Snow Heavy Snow
11:15 AM 23.0 °F 11.7 °F 23.0 °F 100% 29.92 in 7.0 mi WSW 11.5 mph - N/A   Unknown
11:35 AM 26.6 °F 12.7 °F 26.6 °F 100% 29.91 in 8.0 mi West 20.7 mph - N/A   Overcast
11:55 AM 30.2 °F 17.1 °F 30.2 °F 100% 29.91 in 9.0 mi West 21.9 mph 25.3 mph N/A   Overcast
12:15 PM 35.6 °F 22.7 °F 32.0 °F 87% 29.90 in 10.0 mi WNW 28.8 mph 36.8 mph N/A   Overcast
12:35 PM 35.6 °F 22.5 °F 32.0 °F 87% 29.91 in 10.0 mi WNW 29.9 mph 39.1 mph N/A   Overcast
12:55 PM 35.6 °F 22.5 °F 32.0 °F 87% 29.91 in 10.0 mi WNW 29.9 mph 38.0 mph N/A   Overcast
1:15 PM 33.8 °F 20.5 °F 30.2 °F 87% 29.91 in 10.0 mi NW 27.6 mph 35.7 mph N/A   Overcast
1:35 PM 33.8 °F 21.3 °F 30.2 °F 87% 29.93 in 10.0 mi NW 24.2 mph 34.5 mph N/A   Mostly Cloudy
1:55 PM 32.0 °F 16.5 °F 28.4 °F 87% 29.94 in 1.8 mi NW 35.7 mph 43.7 mph N/A   Overcast
2:15 PM 30.2 °F 13.9 °F 28.4 °F 93% 29.96 in 1.8 mi NW 36.8 mph 42.6 mph N/A Rain Light Freezing Rain
2:35 PM 28.4 °F 12.7 °F 26.6 °F 93% 29.97 in 0.5 mi NW 29.9 mph 44.9 mph N/A Rain Light Freezing Rain
2:55 PM 28.4 °F 13.0 °F 26.6 °F 93% 29.98 in 4.0 mi NW 28.8 mph 38.0 mph N/A Rain Light Freezing Rain
3:15 PM 28.4 °F 13.0 °F 24.8 °F 86% 30.00 in 6.0 mi NW 28.8 mph 43.7 mph N/A   Overcast
3:35 PM 26.6 °F 10.8 °F 24.8 °F 93% 30.01 in 4.0 mi NW 27.6 mph 40.3 mph N/A Rain Light Freezing Rain
3:55 PM 24.8 °F 8.1 °F 23.0 °F 93% 30.02 in 5.0 mi NW 28.8 mph 40.3 mph N/A Rain Light Freezing Rain
4:15 PM 24.8 °F 9.0 °F 21.2 °F 86% 30.04 in 10.0 mi NW 25.3 mph 35.7 mph N/A   Overcast
4:35 PM 24.8 °F 10.0 °F 21.2 °F 86% 30.05 in 10.0 mi NW 21.9 mph 32.2 mph N/A   Overcast
4:55 PM 23.0 °F 7.2 °F 21.2 °F 93% 30.05 in 10.0 mi NW 23.0 mph 32.2 mph N/A   Overcast
5:15 PM 23.0 °F 6.0 °F 19.4 °F 86% 30.07 in 10.0 mi NW 27.6 mph 33.4 mph N/A   Mostly Cloudy
5:35 PM 23.0 °F 7.2 °F 19.4 °F 86% 30.07 in 10.0 mi NW 23.0 mph 33.4 mph N/A   Clear
5:55 PM 21.2 °F 6.4 °F 17.6 °F 86% 30.08 in 10.0 mi NW 18.4 mph 27.6 mph N/A   Clear
6:15 PM 19.4 °F 2.1 °F 15.8 °F 86% 30.08 in 10.0 mi NW 24.2 mph 31.1 mph N/A   Clear
6:35 PM 19.4 °F 1.4 °F 14.0 °F 80% 30.10 in 10.0 mi NW 26.5 mph 35.7 mph N/A   Clear
6:55 PM 19.4 °F 2.1 °F 14.0 °F 80% 30.10 in 10.0 mi NW 24.2 mph 35.7 mph N/A   Clear
7:15 PM 17.6 °F 0.9 °F 14.0 °F 86% 30.10 in 10.0 mi NW 20.7 mph 31.1 mph N/A   Clear
7:35 PM 17.6 °F -1.0 °F 12.2 °F 79% 30.10 in 10.0 mi NW 26.5 mph 33.4 mph N/A   Clear
7:55 PM 17.6 °F -0.3 °F 12.2 °F 79% 30.12 in 10.0 mi NW 24.2 mph 32.2 mph N/A   Clear
8:15 PM 17.6 °F 0.5 °F 14.0 °F 86% 30.11 in 10.0 mi NW 21.9 mph 31.1 mph N/A   Clear
8:35 PM 15.8 °F -1.5 °F 14.0 °F 93% 30.11 in 10.0 mi NNW 20.7 mph 28.8 mph N/A   Clear
8:55 PM 15.8 °F -0.2 °F 12.2 °F 86% 30.12 in 10.0 mi NNW 17.3 mph 20.7 mph N/A   Clear
9:15 PM 15.8 °F 2.7 °F 12.2 °F 86% 30.13 in 10.0 mi NW 11.5 mph - N/A   Clear
9:35 PM 14.0 °F -0.8 °F 10.4 °F 86% 30.12 in 10.0 mi WNW 13.8 mph - N/A   Clear
9:55 PM 14.0 °F -1.4 °F 10.4 °F 86% 30.12 in 10.0 mi NW 15.0 mph - N/A   Clear
10:15 PM 15.8 °F 2.7 °F 10.4 °F 79% 30.12 in 10.0 mi NW 11.5 mph - N/A   Mostly Cloudy
10:35 PM 14.0 °F - 10.4 °F 86% 30.13 in 10.0 mi Calm Calm - N/A   Overcast
10:55 PM 14.0 °F 5.1 °F 10.4 °F 86% 30.11 in 10.0 mi NW 5.8 mph - N/A   Overcast
11:15 PM 14.0 °F 6.5 °F 10.4 °F 86% 30.12 in 10.0 mi NW 4.6 mph - N/A   Overcast
11:35 PM 14.0 °F - 10.4 °F 86% 30.11 in 10.0 mi Calm Calm - N/A   Overcast
11:55 PM 14.0 °F - 12.2 °F 93% 30.10 in 10.0 mi Calm Calm - N/A   Overcast